This is the latest recevied weather packets stored in our database for station/object KB3FKJ. If no packets are shown the sender has not sent any weather packets the latest 10 day(s).
| Time | Temp. | Humidity | Pressure | Rain* | Wind** | Luminosity | Snow |
|---|---|---|---|---|---|---|---|
| 1777759502 | 7.22° C | 70% | 1012.9 hPa | 0 mm | - | 56 W/m² | - |
| 1777759199 | 7.22° C | 72% | 1013 hPa | 0 mm | - | 80 W/m² | - |
| 1777758897 | 6.67° C | 71% | 1013.1 hPa | 0 mm | - | 94 W/m² | - |
| 1777758593 | 6.67° C | 73% | 1012.8 hPa | 0 mm | - | 83 W/m² | - |
| 1777758290 | 6.67° C | 72% | 1013 hPa | 0 mm | - | 54 W/m² | - |
| 1777757988 | 6.67° C | 72% | 1012.8 hPa | 0 mm | - | 50 W/m² | - |
| 1777757684 | 6.67° C | 72% | 1012.9 hPa | 0 mm | - | 69 W/m² | - |
| 1777757383 | 6.67° C | 73% | 1012.9 hPa | 0 mm | - | 89 W/m² | - |
| 1777757081 | 6.11° C | 73% | 1012.8 hPa | 0 mm | - | 55 W/m² | - |
| 1777756778 | 6.11° C | 73% | 1012.9 hPa | 0 mm | - | 37 W/m² | - |
| 1777756474 | 6.67° C | 74% | 1013 hPa | 0 mm | - | 32 W/m² | - |
| 1777756171 | 6.67° C | 73% | 1012.6 hPa | 0 mm | - | 48 W/m² | - |
| 1777755868 | 6.11° C | 73% | 1012.7 hPa | 0 mm | - | 52 W/m² | - |
| 1777755565 | 6.11° C | 74% | 1012.6 hPa | 0 mm | - | 40 W/m² | - |
| 1777755261 | 6.67° C | 73% | 1012.7 hPa | 0 mm | - | 41 W/m² | - |
| 1777754959 | 6.67° C | 73% | 1012.9 hPa | 0 mm | - | 46 W/m² | - |
| 1777754656 | 6.67° C | 75% | 1012.8 hPa | 0 mm | - | 47 W/m² | - |
| 1777754354 | 6.67° C | 73% | 1013 hPa | 0 mm | - | 43 W/m² | - |
| 1777754051 | 6.67° C | 75% | 1012.9 hPa | 0 mm | - | 43 W/m² | - |
| 1777753746 | 6.11° C | 74% | 1012.9 hPa | 0 mm | - | 43 W/m² | - |
| 1777753444 | 6.67° C | 75% | 1012.8 hPa | 0 mm | - | 43 W/m² | - |
| 1777753142 | 6.67° C | 74% | 1012.9 hPa | 0 mm | - | 49 W/m² | - |
| 1777752837 | 6.11° C | 74% | 1012.8 hPa | 0 mm | - | 49 W/m² | - |
| 1777752534 | 6.67° C | 72% | 1012.9 hPa | 0 mm | - | 45 W/m² | - |
| 1777752230 | 6.67° C | 73% | 1012.7 hPa | 0 mm | - | 48 W/m² | - |
* Rain latest hour (hover to see other rain measurements)
** Current wind speed in m/s (hover to see current wind gust speed)